{"data":{"norad_id":69861,"epoch":"2026-09-20T03:21:26.788032Z","epoch_age_seconds":52796,"freshness":"FRESH","line1":"1 69861U 26155P   26263.13989338  .00000068  00000+0  87788-4 0  9997","line2":"2 69861  89.0082  53.7276 0026228  11.4159 348.7581 13.50451866 10691","mean_motion":13.50451866,"eccentricity":0.0026228,"inclination_deg":89.0082,"raan_deg":53.7276,"arg_perigee_deg":11.4159,"mean_anomaly_deg":348.7581,"bstar":8.7788e-5,"rev_number":1069,"period_min":106.63097562042,"perigee_km":1051.0599398573,"apogee_km":1090.1330161896,"semimajor_km":7448.7334780234,"source":"CELESTRAK","updated_at":"2026-09-20T09:00:25.159791Z"}}